Bolivar-Sucre, Bolivia

4:00 AM -04 on December 16, 2019 (GMT -0400)
Bolivar-Sucre

Weather History for 85406 - October, 2019

Change the Weather History Date:

Monday, October 14, 2019

  Actual Average Record
Temperature  
Mean Temperature 64 °F -  
Max Temperature 71 °F 67 °F - ()
Min Temperature 57 °F 60 °F - ()
Degree Days  
Heating Degree Days 1    
Growing Degree Days 14 (Base 50)    
Moisture  
Dew Point 54 °F    
Average Humidity 66    
Maximum Humidity 83    
Minimum Humidity 43    
Precipitation  
Precipitation 0.00 in 0.00 in - ()
Sea Level Pressure  
Sea Level Pressure 30.01 in    
Wind  
Wind Speed 5 mph ()    
Max Wind Speed 15 mph    
Max Gust Speed -    
Visibility 9.1 miles    
Events      
T = Trace of Precipitation, MM = Missing Value Source: Averaged Metar Reports

Daily Weather History Graph

Daily Weather History Graph

Search for Another Location

Airport or City:

Astronomy

Oct. 14, 2019 Rise Set
Actual Time 6:13 AM -04 6:41 PM -04
Civil Twilight 5:50 AM -04 7:04 PM -04
Nautical Twilight 5:25 AM -04 7:29 PM -04
Astronomical Twilight 4:59 AM -04 7:55 PM -04
Moon 7:32 PM -04 (10/14) 6:50 AM -04 (10/14)
Length of Visible Light 13h 13m
Length of Day
12h 28m
Waxing Gibbous, 99% of the Moon is Illuminated
Oct 14
Waxing Gibbous
Oct 21
Last Quarter
Oct 27
New
Nov 4
First Quarter
Nov 12
Full

Hourly Weather History & Observations

Time (-04) Temp. Dew Point Humidity Pressure Visibility Wind Dir Wind Speed Gust Speed Precip Events Conditions
12:00 AM 64.4 °F 55.4 °F 73% 30.04 in 6.2 mi SSW 2.3 mph - N/A   Mostly Cloudy
1:00 AM 64.4 °F 55.4 °F 73% 30.01 in 6.2 mi South 2.3 mph - N/A   Overcast
2:00 AM 63 °F 54 °F 65% 30.01 in 6 mi South 4.6 mph - -   Partly Cloudy
2:00 AM 62.6 °F 53.6 °F 72% 30.01 in 6.2 mi South 4.6 mph - N/A   Partly Cloudy
3:00 AM 62.6 °F 55.4 °F 77% 29.98 in - South 4.6 mph - N/A   Clear
4:00 AM 59.0 °F 50.0 °F 72% 29.98 in - ENE 4.6 mph - N/A   Clear
5:00 AM 59 °F 49 °F 62% 29.98 in 19 mi ENE 4.6 mph - -   Partly Cloudy
5:00 AM 59.0 °F 50.0 °F 72% 29.98 in - ENE 4.6 mph - N/A   Clear
6:00 AM 59.0 °F 50.0 °F 72% 29.98 in - NW 3.5 mph - N/A   Clear
7:00 AM 59.0 °F 50.0 °F 72% 30.01 in - NE 3.5 mph - N/A   Clear
8:00 AM 64 °F 52 °F 57% 30.04 in 19 mi NE 3.5 mph - -   Partly Cloudy
8:00 AM 64.4 °F 51.8 °F 64% 30.04 in 6.2 mi NE 3.5 mph - N/A   Scattered Clouds
9:00 AM 68.0 °F 53.6 °F 60% 30.04 in 6.2 mi Variable 4.6 mph - N/A   Mostly Cloudy
10:00 AM 68.0 °F 53.6 °F 60% 30.06 in 6.2 mi SW 4.6 mph - N/A   Mostly Cloudy
11:00 AM 70 °F 53 °F 43% 30.05 in 19 mi SW 10.4 mph - -   Partly Cloudy
11:00 AM 69.8 °F 51.8 °F 53% 30.04 in 6.2 mi SW 10.4 mph - N/A   Scattered Clouds
12:00 PM 69.8 °F 53.6 °F 56% 30.04 in - SW 11.5 mph - N/A   Clear
1:00 PM 71.6 °F 53.6 °F 53% 30.01 in - SW 10.4 mph - N/A   Clear
2:00 PM 70 °F 56 °F 51% 30.01 in 12 mi SW 11.5 mph - -   Partly Cloudy
2:00 PM 69.8 °F 55.4 °F 60% 30.01 in - SW 11.5 mph - N/A   Clear
3:00 PM 69.8 °F 55.4 °F 60% 29.98 in - SW 11.5 mph - N/A   Clear
4:00 PM 69.8 °F 53.6 °F 56% 29.98 in - SSW 15.0 mph - N/A   Clear
5:00 PM 68.0 °F 53.6 °F 60% 29.98 in - SSW 10.4 mph - N/A   Clear
6:00 PM 68.0 °F 55.4 °F 64% 30.01 in - SW 8.1 mph - N/A   Clear
7:00 PM 66.2 °F 57.2 °F 73% 30.01 in - SW 5.8 mph - N/A   Clear
8:00 PM 65 °F 58 °F 73% 30.01 in 6 mi Calm Calm - -   Partly Cloudy
8:00 PM 64.4 °F 59.0 °F 83% 30.01 in - Variable 1.2 mph - N/A   Clear
9:00 PM 64.4 °F 59.0 °F 83% 30.01 in - West 2.3 mph - N/A   Clear
10:00 PM 64.4 °F 59.0 °F 83% 30.01 in - Calm Calm - N/A   Clear
11:00 PM 64 °F 58 °F 76% 30.03 in 6 mi West 2.3 mph - -   Partly Cloudy
11:00 PM 64.4 °F 59.0 °F 83% 30.01 in 6.2 mi West 2.3 mph - N/A   Scattered Clouds